Location: West Sayville
(40.7279°N, 73.0976°W)
Time: 09:40:48
(UTC+00:00)

CZ-2C R/B - Pass Details

Date: 29 October 2020
Orbit: 703 x 909 km, 98.1° (Epoch: 23 November)

Event Time Altitude Azimuth Distance (km) Brightness Sun altitude
Rises 22:37:39 0° 136° (SE) 3,522 6.1 -9.3°
Reaches altitude 10° 22:40:21 10° 126° (SE) 2,575 5.3 -9.8°
Maximum altitude 22:45:16 30° 67° (ENE) 1,542 4.0 -10.7°
Drops below altitude 10° 22:50:03 10° 9° (N) 2,514 5.5 -11.6°
Sets 22:52:39 0° 359° (N) 3,425 6.3 -12.1°
